User: anonymous   Login
Location: Hamilton
(37.7830°S, 175.2830°E)
Time: 13:10:56
(UTC+13:00)
Language:

Cosmos 968 Rocket - Orbit

View from above orbital plane
View from above orbital plane
View from above satellite
View from above satellite

Ground track
Ground track

The orbit data is extracted from the following two-line orbital elements,

1 10521U 77119B   19293.09890236  .00000074  00000-0  31495-4 0  9992
2 10521  74.0259 124.7006 0022023 287.8998  71.9755 14.40765412195371
Epoch (UTC): 20 October 2019 02:22:25
Eccentricity: 0.0022023
inclination: 74.0259°
perigee height: 740 km
apogee height: 771 km
right ascension of ascending node: 124.7006°
argument of perigee: 287.8998°
revolutions per day: 14.40765412
mean anomaly at epoch: 71.9755°
orbit number at epoch: 19537

The dashed part of the orbit path shows where the satellite is in the earth's shadow,  

DLR